Location: Unspecified
(0.0000°N, 0.0000°E)
Time: 06:09:09
(UTC+00:00)

Courier 1B - Pass Details

Date: 24 September 2023
Orbit: 962 x 1208 km, 28.3° (Epoch: 06 December)

Event Time Altitude Azimuth Distance (km) Brightness Sun altitude
Rises 12:31:53 0° 272° (W) 4,013 10.8 80.0°
Reaches altitude 10° 12:35:24 10° 287° (WNW) 3,084 10.4 79.2°
Maximum altitude 12:41:07 22° 335° (NNW) 2,327 9.9 77.7°
Drops below altitude 10° 12:46:56 10° 23° (NNE) 3,135 10.2 76.3°
Sets 12:50:34 0° 38° (NE) 4,096 10.7 75.4°
